{"data":{"norad_id":66487,"epoch":"2026-09-20T11:33:22.540032Z","epoch_age_seconds":90856,"freshness":"FRESH","line1":"1 66487U 25263C   26263.48151088  .00009938  00000+0  37004-3 0  9998","line2":"2 66487  42.9995 330.2858 0000485 255.0802 104.9996 15.27590747 48691","mean_motion":15.27590747,"eccentricity":4.85e-5,"inclination_deg":42.9995,"raan_deg":330.2858,"arg_perigee_deg":255.0802,"mean_anomaly_deg":104.9996,"bstar":0.00037004,"rev_number":4869,"period_min":94.266085522447,"perigee_km":482.68414987919,"apogee_km":483.34968180902,"semimajor_km":6861.1539158441,"source":"CELESTRAK","updated_at":"2026-09-21T09:00:35.919026Z"}}